EW4169 Weather Reports


Display with metric or nautical units.
time (UTC)temp
F
wind
direction
speed
MPH
gust
MPH
rain 1hr
in
rain 24hr
in
rain mn
in
humidity
%
barometer
mb
20260906163100 79 128 0.0 4.0 0.00 0.00 0.00 63 1013.6
20260906161539 79 98 0.0 4.0 0.00 0.00 0.00 66 1013.6
20260906160057 79 262 0.0 5.0 0.00 0.00 0.00 64 1013.7
20260906154559 79 261 0.0 5.0 0.00 0.00 0.00 64 1013.6
20260906154512 79 261 1.0 5.0 0.00 0.00 0.00 63 1013.6
20260906153026 78 274 0.0 3.0 0.00 0.00 0.00 66 1013.6
20260906151554 77 268 0.0 4.0 0.00 0.00 0.00 67 1013.6
20260906150033 77 276 0.0 3.0 0.00 0.00 0.00 67 1013.5
20260906144608 77 278 1.0 4.0 0.00 0.00 0.00 68 1013.4
20260906143037 76 278 0.0 5.0 0.00 0.00 0.00 71 1013.4
20260906141552 76 258 0.0 4.0 0.00 0.00 0.00 73 1013.2
20260906140036 76 276 0.0 3.0 0.00 0.00 0.00 75 1013.1
20260906134553 75 264 0.0 5.0 0.00 0.00 0.00 77 1013.1
20260906133017 75 267 0.0 2.0 0.00 0.00 0.00 79 1013.0
20260906131539 75 270 0.0 3.0 0.00 0.00 0.00 80 1013.1
20260906130029 74 113 0.0 4.0 0.00 0.00 0.00 81 1012.8
20260906124509 74 113 0.0 3.0 0.00 0.00 0.00 83 1012.8
20260906123032 72 186 0.0 0.0 0.00 0.00 0.00 88 1012.6
20260906121546 70 186 0.0 0.0 0.00 0.00 0.00 90 1012.6
20260906120021 68 186 0.0 0.0 0.00 0.00 0.00 92 1012.7
20260906114554 66 186 0.0 0.0 0.00 0.00 0.00 92 1012.6
20260906113023 64 186 0.0 0.0 0.00 0.00 0.00 91 1012.3
20260906111546 64 186 0.0 0.0 0.00 0.00 0.00 92 1012.1
20260906110003 64 186 0.0 0.0 0.00 0.00 0.00 92 1011.9
20260906104533 64 186 0.0 0.0 0.00 0.00 0.00 92 1011.7
20260906103011 64 186 0.0 0.0 0.00 0.00 0.00 92 1011.4
20260906101548 64 186 0.0 0.0 0.00 0.00 0.00 92 1011.2
20260906100013 64 186 0.0 0.0 0.00 0.00 0.00 92 1011.1
20260906094554 64 186 0.0 0.0 0.00 0.00 0.00 92 1010.9
20260906093021 64 186 0.0 0.0 0.00 0.00 0.00 92 1010.7
20260906091556 65 186 0.0 0.0 0.00 0.00 0.00 92 1010.7
20260906090018 65 186 0.0 0.0 0.00 0.00 0.00 92 1010.6
20260906084534 65 186 0.0 0.0 0.00 0.00 0.00 92 1010.5
20260906083011 64 138 0.0 0.0 0.00 0.00 0.00 92 1010.5
20260906081539 64 120 0.0 0.0 0.00 0.00 0.00 92 1010.3
20260906080105 64 120 0.0 0.0 0.00 0.00 0.00 92 1010.4
20260906080004 64 121 0.0 0.0 0.00 0.00 0.00 92 1010.3
20260906074529 64 120 0.0 0.0 0.00 0.00 0.00 92 1010.3
20260906073017 65 120 0.0 0.0 0.00 0.00 0.00 92 1010.2
20260906071531 65 120 0.0 0.0 0.00 0.00 0.00 92 1010.1
20260906070013 65 120 0.0 0.0 0.00 0.00 0.00 92 1010.3
20260906064535 65 120 0.0 0.0 0.00 0.00 0.00 92 1010.2
20260906063024 65 120 0.0 0.0 0.00 0.00 0.00 92 1010.1
20260906061505 65 120 0.0 0.0 0.00 0.00 0.00 92 1010.3
20260906060043 65 120 0.0 0.0 0.00 0.00 0.00 92 1010.4
20260906054521 66 120 0.0 0.0 0.00 0.00 0.00 92 1010.4
20260906053009 66 120 0.0 0.0 0.00 0.00 0.00 92 1010.6
20260906051536 66 120 0.0 0.0 0.00 0.00 0.00 92 1010.7
20260906050054 66 120 0.0 0.0 0.00 0.00 0.00 92 1010.7
20260906044532 67 120 0.0 0.0 0.00 0.00 0.00 92 1010.9
20260906043055 67 120 0.0 0.0 0.00 0.00 0.00 92 1010.7
20260906041540 67 120 0.0 0.0 0.00 0.00 0.00 92 1010.9
20260906040026 67 120 0.0 0.0 0.00 0.00 0.00 92 1010.9
20260906034539 67 120 0.0 0.0 0.00 0.00 0.00 91 1011.0
20260906033016 67 120 0.0 0.0 0.00 0.00 0.00 91 1011.0
20260906031542 68 120 0.0 0.0 0.00 0.00 0.00 91 1010.9
20260906030008 68 120 0.0 0.0 0.00 0.00 0.00 91 1011.0
20260906024542 68 120 0.0 0.0 0.00 0.00 0.00 90 1011.0
20260906023100 68 120 0.0 0.0 0.00 0.00 0.00 91 1010.9
20260906023007 68 120 0.0 0.0 0.00 0.00 0.00 91 1010.9
20260906021552 68 120 0.0 0.0 0.00 0.00 0.00 90 1010.8
20260906020010 69 120 0.0 0.0 0.00 0.00 0.00 90 1010.8
20260906014551 69 120 0.0 0.0 0.00 0.00 0.00 89 1010.5
20260906013034 69 120 0.0 0.0 0.00 0.00 0.00 89 1010.3
20260906011554 70 120 0.0 0.0 0.00 0.00 0.00 88 1010.2
20260906010017 70 120 0.0 0.0 0.00 0.00 0.00 87 1010.3
20260906004537 70 120 0.0 0.0 0.00 0.00 0.00 87 1010.3
20260906003018 71 120 0.0 0.0 0.00 0.00 0.00 86 1010.1
20260906001542 71 120 0.0 0.0 0.00 0.00 0.00 84 1009.8
20260906000058 71 120 0.0 0.0 0.00 0.00 0.00 82 1009.7
20260905234541 72 120 0.0 0.0 0.00 0.00 0.00 80 1009.6
20260905233003 73 120 0.0 0.0 0.00 0.00 0.00 79 1009.6
20260905231521 73 120 0.0 0.0 0.00 0.00 0.00 77 1009.6
20260905230043 74 120 0.0 0.0 0.00 0.00 0.00 76 1009.6
20260905224525 75 120 0.0 0.0 0.00 0.00 0.00 74 1009.4
20260905223055 75 120 0.0 0.0 0.00 0.00 0.00 73 1009.4
20260905221517 76 120 0.0 0.0 0.00 0.00 0.00 71 1009.3
20260905220039 76 120 0.0 0.0 0.00 0.00 0.00 71 1009.3
20260905214527 76 126 0.0 0.0 0.00 0.00 0.00 71 1009.1
20260905213059 77 108 0.0 1.0 0.00 0.00 0.00 68 1008.9
20260905211511 78 121 0.0 1.0 0.00 0.00 0.00 68 1008.8
20260905210039 78 117 0.0 5.0 0.00 0.00 0.00 71 1008.5
20260905204554 78 153 0.0 2.0 0.00 0.00 0.00 68 1008.4
20260905203040 78 123 0.0 3.0 0.00 0.00 0.00 68 1008.5
20260905201610 79 115 0.0 5.0 0.00 0.00 0.00 68 1008.6
20260905200041 79 105 0.0 2.0 0.00 0.00 0.00 67 1008.8
20260905194553 79 131 0.0 2.0 0.00 0.00 0.00 68 1008.8
20260905193021 78 265 0.0 1.0 0.00 0.00 0.00 68 1009.2
20260905191541 78 265 0.0 0.0 0.00 0.00 0.00 66 1009.4
20260905190019 78 265 0.0 1.0 0.00 0.00 0.00 65 1009.4
20260905184544 79 269 0.0 1.0 0.00 0.00 0.00 64 1009.6
20260905183009 79 122 0.0 2.0 0.00 0.00 0.00 65 1009.9
20260905181552 79 274 0.0 1.0 0.00 0.00 0.00 68 1010.0
20260905180019 80 276 0.0 1.0 0.00 0.00 0.00 66 1009.9
20260905174538 80 108 0.0 1.0 0.00 0.00 0.00 66 1009.9
20260905173021 80 118 0.0 2.0 0.00 0.00 0.00 63 1009.9
20260905171542 80 266 0.0 3.0 0.00 0.00 0.00 67 1010.1
20260905170022 79 271 0.0 2.0 0.00 0.00 0.00 67 1010.2
20260905164547 79 127 0.0 3.0 0.00 0.00 0.00 66 1010.3